SDT,��Ԑ��ʗ��i��Gy/h�j,�����ʗ��i��Gy/h),�~�J��i�����j,���J��,�����l�i��Gy/h�j,����l�i��Gy/h�j,�ߋ��̍ő�l�i��Gy/h�j
20110311010000,0.04,0.069,0.0,0,0.038,0.059,0.092
20110311020000,0.04,0.069,0.0,1,,,
20110311030000,0.04,0.07,0.0,0,,,
20110311040000,0.04,0.07,0.0,0,,,
20110311050000,0.04,0.069,0.0,0,,,
20110311060000,0.04,0.07,0.0,0,,,
20110311070000,0.04,0.069,0.0,0,,,
20110311080000,0.04,0.069,0.0,0,,,
20110311090000,0.04,0.069,0.0,0,,,
20110311100000,0.04,0.069,0.0,0,,,
20110311110000,0.04,0.07,0.0,0,,,
20110311120000,0.04,0.069,0.0,0,,,
20110311130000,0.04,0.07,0.0,0,,,
20110311140000,0.04,0.07,0.0,0,,,
20110311150000,0.04,0.07,0.5,0,,,
20110311160000,0.045,0.073,0.0,1,,,
20110311170000,0.05,0.078,0.0,0,,,
20110311180000,0.043,0.071,,,,,
20110311190000,0.041,0.069,,,,,
20110311200000,0.04,0.069,,,,,
20110311210000,0.04,0.068,,,,,
20110311220000,0.04,0.068,,,,,
20110311230000,0.04,0.068,,,,,
20110312000000,0.04,0.069,,,,,
20110312010000,0.04,0.068,,,,,
20110312020000,0.04,0.068,,,,,
20110312030000,0.041,0.068,,,,,
20110312040000,0.04,0.068,,,,,
20110312050000,0.041,0.068,,,,,
20110312060000,0.04,0.068,,,,,
20110312070000,0.04,0.068,,,,,
20110312080000,0.04,0.069,,,,,
20110312090000,0.04,0.068,,,,,
20110312100000,0.04,0.068,,,,,
20110312110000,0.04,0.068,,,,,
20110312120000,0.04,0.068,,,,,
20110312130000,0.04,0.068,,,,,
20110312140000,0.04,0.068,,,,,
20110312150000,0.04,0.068,,,,,
20110312160000,0.04,0.068,,,,,
20110312170000,0.04,0.068,,,,,
20110312180000,0.04,0.068,,,,,
20110312190000,0.04,0.067,,,,,
20110312200000,0.04,0.068,,,,,
20110312210000,0.041,0.068,,,,,
20110312220000,0.04,0.068,,,,,
20110312230000,0.041,0.069,,,,,
20110313000000,0.041,0.068,,,,,
20110313010000,0.041,0.068,,,,,
20110313020000,0.04,0.069,,,,,
20110313030000,0.04,0.068,,,,,
20110313040000,0.04,0.068,,,,,
20110313050000,0.041,0.068,,,,,
20110313060000,0.04,0.069,,,,,
20110313070000,0.041,0.069,,,,,
20110313080000,0.041,0.069,,,,,
20110313090000,0.041,0.068,,,,,
20110313100000,0.041,0.068,,,,,
20110313110000,0.04,0.068,,,,,
20110313120000,0.04,0.069,,,,,
20110313130000,0.041,0.069,,,,,
20110313140000,0.041,0.069,,,,,
20110313150000,0.04,0.069,,,,,
20110313160000,0.04,0.068,,,,,
20110313170000,0.04,0.069,,,,,
20110313180000,0.041,0.069,,,,,
20110313190000,0.04,0.068,,,,,
20110313200000,0.041,0.068,,,,,
20110313210000,0.041,0.069,,,,,
20110313220000,0.04,0.067,,,,,
20110313230000,0.041,0.068,,,,,
20110314000000,0.041,0.069,,,,,
20110314010000,0.041,0.069,,,,,
20110314020000,0.041,0.068,,,,,
20110314030000,0.041,0.068,,,,,
20110314040000,0.041,0.069,,,,,
20110314050000,0.041,0.068,,,,,
20110314060000,0.041,0.068,,,,,
20110314070000,0.041,0.069,,,,,
20110314080000,0.041,0.069,,,,,
20110314090000,0.042,0.07,,,,,
20110314100000,0.041,0.07,,,,,
20110314110000,0.04,0.068,,,,,
20110314120000,0.041,0.069,,,,,
20110314130000,0.041,0.069,,,,,
20110314140000,0.04,0.069,,,,,
20110314150000,0.04,0.069,,,,,
20110314160000,0.04,0.069,,,,,
20110314170000,0.04,0.069,,,,,
20110314180000,0.041,0.069,,,,,
20110314190000,0.04,0.069,,,,,
20110314200000,0.04,0.069,,,,,
20110314210000,0.04,0.068,,,,,
20110314220000,0.04,0.068,,,,,
20110314230000,0.597,0.475,,,,,
20110315000000,36.355,49.265,,,,,
20110315010000,14.56,14.935,,,,,
20110315020000,24.115,28.518,,,,,
20110315030000,6.546,6.145,,,,,
20110315040000,4.614,3.92,,,,,
20110315050000,3.807,3.196,,,,,
20110315060000,3.307,2.749,,,,,
20110315070000,6.399,6.208,,,,,
20110315080000,13.343,19.014,,,,,
20110315090000,5.898,5.285,,,,,
20110315100000,6.142,5.388,,,,,
20110315110000,7.369,7.307,,,,,
20110315120000,5.622,5.083,,,,,
20110315130000,5.282,4.548,,,,,
20110315140000,5.07,4.356,,,,,
20110315150000,4.886,4.191,,,,,
20110315160000,4.747,4.063,,,,,
20110315170000,4.635,3.961,,,,,
20110315180000,4.574,3.906,,,,,
20110315190000,4.482,3.812,,,,,
20110315200000,4.4,3.754,,,,,
20110315210000,4.342,3.706,,,,,
20110315220000,4.254,3.627,,,,,
20110315230000,4.027,3.441,,,,,
20110316000000,3.737,3.147,,,,,
20110316010000,6.789,6.231,,,,,
20110316020000,37.423,41.497,,,,,
20110316030000,40.954,44.487,,,,,
20110316040000,32.822,33.527,,,,,
20110316050000,28.11,27.816,,,,,
20110316060000,25.312,24.634,,,,,
20110316070000,23.21,22.327,,,,,
20110316080000,21.805,20.831,,,,,
20110316090000,20.49,19.424,,,,,
20110316100000,19.669,18.569,,,,,
20110316110000,30.608,32.983,,,,,
20110316120000,27.908,28.218,,,,,
20110316130000,25.489,25.163,,,,,
20110316140000,21.049,19.844,,,,,
20110316150000,20.332,19.162,,,,,
20110316160000,19.753,18.612,,,,,
20110316170000,19.313,18.192,,,,,
20110316180000,18.957,17.861,,,,,
20110316190000,18.686,17.594,,,,,
20110316200000,18.464,17.386,,,,,
20110316210000,18.277,17.203,,,,,
20110316220000,18.116,17.042,,,,,
20110316230000,17.966,16.896,,,,,
20110317000000,17.819,16.747,,,,,
20110317010000,17.67,16.602,,,,,
20110317020000,17.539,16.452,,,,,
20110317030000,17.409,16.33,,,,,
20110317040000,17.282,16.192,,,,,
20110317050000,17.158,16.063,,,,,
20110317060000,17.023,15.909,,,,,
20110317070000,16.862,15.708,,,,,
20110317080000,16.682,15.518,,,,,
20110317090000,16.522,15.356,,,,,
20110317100000,16.376,15.23,,,,,
20110317110000,16.255,15.099,,,,,
20110317120000,16.132,14.993,,,,,
20110317130000,16.027,14.88,,,,,
20110317140000,15.924,14.787,,,,,
20110317150000,15.838,14.705,,,,,
20110317160000,15.742,14.62,,,,,
20110317170000,15.652,14.533,,,,,
20110317180000,15.574,14.437,,,,,
20110317190000,15.513,14.381,,,,,
20110317200000,15.462,14.315,,,,,
20110317210000,15.395,14.238,,,,,
20110317220000,15.324,14.166,,,,,
20110317230000,15.245,14.077,,,,,
20110318000000,15.173,13.984,,,,,
20110318010000,15.094,13.917,,,,,
20110318020000,15.009,13.834,,,,,
20110318030000,14.932,13.755,,,,,
20110318040000,14.855,13.684,,,,,
20110318050000,14.774,13.595,,,,,
20110318060000,14.691,13.518,,,,,
20110318070000,14.595,13.393,,,,,
20110318080000,14.475,13.263,,,,,
20110318090000,14.336,13.13,,,,,
20110318100000,14.203,13.004,,,,,
20110318110000,14.089,12.888,,,,,
20110318120000,13.978,12.788,,,,,
20110318130000,13.876,12.685,,,,,
20110318140000,13.821,12.639,,,,,
20110318150000,14.065,12.902,,,,,
20110318160000,13.678,12.487,,,,,
20110318170000,13.578,12.37,,,,,
20110318180000,13.526,12.324,,,,,
20110318190000,13.486,12.287,,,,,
20110318200000,13.453,12.267,,,,,
20110318210000,13.406,12.23,,,,,
20110318220000,13.356,12.185,,,,,
20110318230000,13.3,12.134,,,,,
20110319000000,13.235,12.073,,,,,
20110319010000,13.167,12.012,,,,,
20110319020000,13.09,11.936,,,,,
20110319030000,13.027,11.873,,,,,
20110319040000,12.966,11.807,,,,,
20110319050000,12.874,11.71,,,,,
20110319060000,12.791,11.614,,,,,
20110319070000,12.696,11.471,,,,,
20110319080000,12.614,11.383,,,,,
20110319090000,12.548,11.306,,,,,
20110319100000,12.441,11.192,,,,,
20110319110000,12.319,11.057,,,,,
20110319120000,12.217,10.969,,,,,
20110319130000,12.133,10.917,,,,,
20110319140000,12.052,10.85,,,,,
20110319150000,11.972,10.773,,,,,
20110319160000,11.908,10.701,,,,,
20110319170000,11.844,10.653,,,,,
20110319180000,11.796,10.614,,,,,
20110319190000,11.757,10.582,,,,,
20110319200000,11.721,10.566,,,,,
20110319210000,11.688,10.533,,,,,
20110319220000,11.645,10.501,,,,,
20110319230000,11.6,10.464,,,,,
20110320000000,11.547,10.416,,,,,
20110320010000,11.493,10.363,,,,,
20110320020000,11.443,10.307,,,,,
20110320030000,11.39,10.25,,,,,
20110320040000,11.334,10.194,,,,,
20110320050000,11.279,10.147,,,,,
20110320060000,11.219,10.09,,,,,
20110320070000,13.906,12.927,,,,,
20110320080000,21.131,21.168,,,,,
20110320090000,17.854,17.302,,,,,
20110320100000,12.536,11.243,,,,,
20110320110000,12.08,10.786,,,,,
20110320120000,11.759,10.481,,,,,
20110320130000,11.517,10.255,,,,,
20110320140000,11.323,10.076,,,,,
20110320150000,11.172,9.935,,,,,
20110320160000,11.055,9.843,,,,,
20110320170000,10.972,9.765,,,,,
20110320180000,10.914,9.724,,,,,
20110320190000,10.868,9.691,,,,,
20110320200000,10.82,9.667,,,,,
20110320210000,10.777,9.623,,,,,
20110320220000,10.734,9.582,,,,,
20110320230000,10.692,9.549,,,,,
20110321000000,10.717,9.587,,,,,
20110321010000,10.773,9.643,,,,,
20110321020000,10.663,9.533,,,,,
20110321030000,10.529,9.393,,,,,
20110321040000,10.464,9.331,,,,,
20110321050000,10.403,9.261,,,,,
20110321060000,10.347,9.215,,,,,
20110321070000,12.903,12.029,,,,,
20110321080000,11.405,10.356,,,,,
20110321090000,9.742,8.565,,,,,
20110321100000,9.269,8.138,,,,,
20110321110000,9.136,8.197,,,,,
20110321120000,9.176,8.235,,,,,
20110321130000,9.185,8.267,,,,,
20110321140000,9.93,8.836,,,,,
20110321150000,22.421,21.996,,,,,
20110321160000,29.281,29.919,,,,,
20110321170000,24.727,24.499,,,,,
20110321180000,21.579,20.907,,,,,
20110321190000,19.179,18.269,,,,,
20110321200000,17.363,16.309,,,,,
20110321210000,15.938,14.804,,,,,
20110321220000,14.89,13.721,,,,,
20110321230000,14.305,13.157,,,,,
20110322000000,14.136,13.017,,,,,
20110322010000,14.457,13.407,,,,,
20110322020000,13.008,11.848,,,,,
20110322030000,12.498,11.317,,,,,
20110322040000,12.187,10.998,,,,,
20110322050000,11.919,10.724,,,,,
20110322060000,11.42,10.198,,,,,
20110322070000,11.078,9.847,,,,,
20110322080000,10.863,9.628,,,,,
20110322090000,10.838,9.603,,,,,
20110322100000,10.859,9.638,,,,,
20110322110000,10.725,9.506,,,,,
20110322120000,10.629,9.402,,,,,
20110322130000,10.663,9.434,,,,,
20110322140000,10.685,9.469,,,,,
20110322150000,10.68,9.472,,,,,
20110322160000,12.786,11.715,,,,,
20110322170000,12.13,10.981,,,,,
20110322180000,10.993,9.767,,,,,
20110322190000,10.864,9.646,,,,,
20110322200000,10.751,9.545,,,,,
20110322210000,10.605,9.404,,,,,
20110322220000,10.327,9.099,,,,,
20110322230000,10.244,9.02,,,,,
20110323000000,10.16,8.948,,,,,
20110323010000,9.926,8.71,,,,,
20110323020000,9.814,8.601,,,,,
20110323030000,9.808,8.609,,,,,
20110323040000,9.837,8.635,,,,,
20110323050000,9.853,8.662,,,,,
20110323060000,9.857,8.664,,,,,
20110323070000,9.841,8.657,,,,,
20110323080000,9.825,8.634,,,,,
20110323090000,9.813,8.625,,,,,
20110323100000,9.798,8.616,,,,,
20110323110000,10.084,8.897,,,,,
20110323120000,9.917,8.723,,,,,
20110323130000,11.574,10.407,,,,,
20110323140000,11.056,9.851,,,,,
20110323150000,13.158,12.004,,,,,
20110323160000,11.836,10.617,,,,,
20110323170000,11.155,9.92,,,,,
20110323180000,10.706,9.476,,,,,
20110323190000,10.416,9.199,,,,,
20110323200000,10.193,8.992,,,,,
20110323210000,10.021,8.822,,,,,
20110323220000,9.882,8.689,,,,,
20110323230000,9.759,8.581,,,,,
20110324000000,9.662,8.485,,,,,
20110324010000,9.575,8.399,,,,,
20110324020000,9.5,8.326,,,,,
20110324030000,9.431,8.258,,,,,
20110324040000,9.372,8.199,,,,,
20110324050000,9.315,8.156,,,,,
20110324060000,9.261,8.279,,,,,
20110324070000,9.218,8.299,,,,,
20110324080000,9.175,8.254,,,,,
20110324090000,9.127,8.202,,,,,
20110324100000,9.098,8.178,,,,,
20110324110000,9.07,8.152,,,,,
20110324120000,9.037,8.122,,,,,
20110324130000,9.003,8.084,,,,,
20110324140000,8.98,8.058,,,,,
20110324150000,8.963,8.045,,,,,
20110324160000,8.916,8.003,,,,,
20110324170000,8.873,7.955,,,,,
20110324180000,8.842,7.919,,,,,
20110324190000,8.807,7.887,,,,,
20110324200000,8.775,7.867,,,,,
20110324210000,8.745,7.837,,,,,
20110324220000,8.712,7.809,,,,,
20110324230000,8.681,7.782,,,,,
20110325000000,8.643,7.749,,,,,
20110325010000,8.607,7.714,,,,,
20110325020000,8.573,7.681,,,,,
20110325030000,8.538,7.65,,,,,
20110325040000,8.502,7.608,,,,,
20110325050000,8.462,7.576,,,,,
20110325060000,8.427,7.536,,,,,
20110325070000,8.392,7.498,,,,,
20110325080000,8.353,7.475,,,,,
20110325090000,8.567,7.619,,,,,
20110325100000,10.53,9.431,,,,,
20110325110000,9.508,8.399,,,,,
20110325120000,8.962,8.045,,,,,
20110325130000,8.705,7.79,,,,,
20110325140000,8.53,7.617,,,,,
20110325150000,8.402,7.489,,,,,
20110325160000,8.302,7.396,,,,,
20110325170000,8.223,7.327,,,,,
20110325180000,8.165,7.273,,,,,
20110325190000,8.118,7.23,,,,,
20110325200000,8.034,7.161,,,,,
20110325210000,7.704,6.836,,,,,
20110325220000,7.906,6.905,,,,,
20110325230000,8.083,7.336,,,,,
20110326000000,7.783,6.905,,,,,
20110326010000,7.749,6.877,,,,,
20110326020000,7.692,6.831,,,,,
20110326030000,7.538,6.684,,,,,
20110326040000,7.402,6.537,,,,,
20110326050000,7.355,6.493,,,,,
20110326060000,7.354,6.487,,,,,
20110326070000,7.371,6.504,,,,,
20110326080000,7.386,6.526,,,,,
20110326090000,7.402,6.547,,,,,
20110326100000,7.402,6.552,,,,,
20110326110000,7.381,6.552,,,,,
20110326120000,7.378,6.529,,,,,
20110326130000,7.366,6.527,,,,,
20110326140000,7.342,6.518,,,,,
20110326150000,7.324,6.504,,,,,
20110326160000,7.301,6.487,,,,,
20110326170000,7.274,6.47,,,,,
20110326180000,7.247,6.447,,,,,
20110326190000,7.222,6.421,,,,,
20110326200000,7.192,6.393,,,,,
20110326210000,7.17,6.368,,,,,
20110326220000,7.148,6.343,,,,,
20110326230000,7.124,6.323,,,,,
20110327000000,7.098,6.304,,,,,
20110327010000,7.074,6.282,,,,,
20110327020000,7.045,6.256,,,,,
20110327030000,7.021,6.234,,,,,
20110327040000,6.996,6.206,,,,,
20110327050000,6.969,6.183,,,,,
20110327060000,6.94,6.155,,,,,
20110327070000,6.91,6.126,,,,,
20110327080000,6.886,6.093,,,,,
20110327090000,6.863,6.07,,,,,
20110327100000,6.84,6.048,,,,,
20110327110000,6.82,6.035,,,,,
20110327120000,6.797,6.016,,,,,
20110327130000,6.772,5.999,,,,,
20110327140000,6.751,5.975,,,,,
20110327150000,6.728,5.954,,,,,
20110327160000,6.699,5.933,,,,,
20110327170000,6.681,5.909,,,,,
20110327180000,6.658,5.887,,,,,
20110327190000,6.634,5.87,,,,,
20110327200000,6.607,5.847,,,,,
20110327210000,6.587,5.824,,,,,
20110327220000,6.565,5.8,,,,,
20110327230000,6.542,5.782,,,,,
20110328000000,6.521,5.763,,,,,
20110328010000,6.497,5.741,,,,,
20110328020000,6.481,5.72,,,,,
20110328030000,6.461,5.707,,,,,
20110328040000,6.44,5.691,,,,,
20110328050000,6.415,5.669,,,,,
20110328060000,6.388,5.647,,,,,
20110328070000,6.37,5.619,,,,,
20110328080000,6.352,5.602,,,,,
20110328090000,6.334,5.584,,,,,
20110328100000,6.311,5.567,,,,,
20110328110000,6.286,5.547,,,,,
20110328120000,6.267,5.526,,,,,
20110328130000,6.248,5.508,,,,,
20110328140000,6.238,5.491,,,,,
20110328150000,6.219,5.479,,,,,
20110328160000,6.191,5.464,,,,,
20110328170000,6.174,5.435,,,,,
20110328180000,6.146,5.421,,,,,
20110328190000,6.125,5.402,,,,,
20110328200000,6.106,5.382,,,,,
20110328210000,6.087,5.365,,,,,
20110328220000,6.073,5.35,,,,,
20110328230000,6.051,5.329,,,,,
20110329000000,6.036,5.314,,,,,
20110329010000,6.02,5.303,,,,,
20110329020000,5.995,5.288,,,,,
20110329030000,6.048,5.267,,,,,
20110329040000,6.135,5.315,,,,,
20110329050000,6.089,5.398,,,,,
20110329060000,6.05,5.365,,,,,
20110329070000,6.059,5.317,,,,,
20110329080000,5.977,5.329,,,,,
20110329090000,6.021,5.258,,,,,
20110329100000,6.125,5.277,,,,,
20110329110000,6.053,5.396,,,,,
20110329120000,5.945,5.328,,,,,
20110329130000,5.892,5.224,,,,,
20110329140000,5.854,5.164,,,,,
20110329150000,5.835,5.134,,,,,
20110329160000,5.817,5.113,,,,,
20110329170000,5.799,5.099,,,,,
20110329180000,5.778,5.084,,,,,
20110329190000,5.755,5.066,,,,,
20110329200000,5.74,5.049,,,,,
20110329210000,5.722,5.034,,,,,
20110329220000,5.712,5.023,,,,,
20110329230000,5.696,5.01,,,,,
20110330000000,5.677,4.996,,,,,
20110330010000,5.659,4.978,,,,,
20110330020000,5.642,4.965,,,,,
20110330030000,5.618,4.949,,,,,
20110330040000,5.598,4.924,,,,,
20110330050000,5.58,4.911,,,,,
20110330060000,5.563,4.89,,,,,
20110330070000,5.551,4.875,,,,,
20110330080000,5.572,4.863,,,,,
20110330090000,5.586,4.88,,,,,
20110330100000,5.655,4.903,,,,,
20110330110000,5.601,4.97,,,,,
20110330120000,5.613,4.916,,,,,
20110330130000,5.598,4.927,,,,,
20110330140000,5.481,4.925,,,,,
20110330150000,5.459,4.797,,,,,
20110330160000,5.436,4.778,,,,,
20110330170000,5.418,4.76,,,,,
20110330180000,5.36,4.746,,,,,
20110330190000,5.336,4.69,,,,,
20110330200000,5.265,4.671,,,,,
20110330210000,5.195,4.605,,,,,
20110330220000,5.128,4.534,,,,,
20110330230000,5.1,4.472,,,,,
20110331000000,5.261,4.434,,,,,
20110331010000,5.162,4.599,,,,,
20110331020000,5.164,4.498,,,,,
20110331030000,5.163,4.503,,,,,
20110331040000,5.157,4.51,,,,,
20110331050000,5.153,4.507,,,,,
20110331060000,5.141,4.499,,,,,
20110331070000,5.136,4.493,,,,,
20110331080000,5.133,4.485,,,,,
20110331090000,5.128,4.486,,,,,
20110331100000,5.125,4.482,,,,,
20110331110000,5.125,4.478,,,,,
20110331120000,5.102,4.477,,,,,
20110331130000,5.05,4.463,,,,,
20110331140000,5.023,4.406,,,,,
20110331150000,4.997,4.386,,,,,
20110331160000,4.977,4.359,,,,,
20110331170000,4.994,4.337,,,,,
20110331180000,5.031,4.354,,,,,
20110331190000,4.992,4.402,,,,,
20110331200000,4.955,4.364,,,,,
20110331210000,4.948,4.329,,,,,
20110331220000,4.934,4.322,,,,,
20110331230000,4.923,4.311,,,,,
20110401000000,4.913,4.301,,,,,
